Location: Unspecified
(0.0000°N, 0.0000°E)
Time: 04:29:30
(UTC+00:00)

DMSP F15 (USA 147) - Pass Details

Date: 17 May 2026
Orbit: 826 x 841 km, 99.0° (Epoch: 11 June)

Event Time Altitude Azimuth Distance (km) Brightness Sun altitude
Exits shadow 18:59:06 17° 79° (E) 2,014 6.7 -14.7°
Maximum altitude 18:59:17 17° 77° (ENE) 2,012 6.7 -14.8°
Drops below altitude 10° 19:02:34 10° 39° (NE) 2,431 7.4 -15.6°
Sets 19:05:46 0° 19° (NNE) 3,358 8.3 -16.3°
